• In Hungary
  • List of Countries
  • For 7 days
  • Water Temperature
  • Satellite Maps
  • Weather Map
  • News
  • Weather Widgets
  • user-avatar
    Login

    Hourly Weather Aksakovo

    Today, 19 September, Wednesday

    Time Temperature Precipitation Wind Pressure Humidity
    00:00 +13°C° 0.4 mm 1 mps 721 mmHg 84%
    01:00 +13°C° 0.4 mm 2 mps 721 mmHg 86%
    02:00 +11°C° 0.5 mm 3 mps 720 mmHg 88%
    03:00 +11°C° 0.5 mm 4 mps 720 mmHg 90%
    04:00 +10°C° 0 mm 3 mps 720 mmHg 93%
    05:00 +10°C° 0.5 mm 4 mps 720 mmHg 91%
    06:00 +10°C° 0.5 mm 4 mps 720 mmHg 90%
    07:00 +8°C° 0.5 mm 5 mps 720 mmHg 89%
    08:00 +9°C° 0.2 mm 5 mps 720 mmHg 86%
    09:00 +9°C° 0.2 mm 5 mps 720 mmHg 84%
    10:00 +9°C° 0.2 mm 6 mps 720 mmHg 82%
    11:00 +9°C° 0.1 mm 6 mps 721 mmHg 82%
    12:00 +9°C° 0.1 mm 6 mps 721 mmHg 82%
    13:00 +9°C° 0.1 mm 6 mps 721 mmHg 81%
    14:00 +9°C° 0.2 mm 6 mps 721 mmHg 80%
    15:00 +9°C° 0.2 mm 5 mps 722 mmHg 78%
    16:00 +10°C° 0.2 mm 5 mps 722 mmHg 76%
    17:00 +9°C° 0.1 mm 5 mps 722 mmHg 80%
    18:00 +8°C° 0.1 mm 4 mps 722 mmHg 84%
    19:00 +7°C° 0.1 mm 4 mps 722 mmHg 88%
    20:00 +7°C° 0.1 mm 4 mps 723 mmHg 89%
    21:00 +7°C° 0.1 mm 4 mps 723 mmHg 91%
    22:00 +7°C° 0.1 mm 5 mps 723 mmHg 92%
    23:00 +7°C° 0 mm 5 mps 723 mmHg 91%

    Tomorrow, 20 September, Thursday

    Time Temperature Precipitation Wind Pressure Humidity
    00:00 +7°C° 0 mm 5 mps 723 mmHg 90%
    01:00 +7°C° 0 mm 5 mps 723 mmHg 89%
    02:00 +7°C° 0 mm 5 mps 723 mmHg 89%
    03:00 +7°C° 0 mm 5 mps 724 mmHg 89%
    04:00 +6°C° 0 mm 5 mps 724 mmHg 88%
    05:00 +6°C° 0 mm 5 mps 724 mmHg 89%
    06:00 +6°C° 0 mm 5 mps 724 mmHg 89%
    07:00 +5°C° 0 mm 5 mps 724 mmHg 90%
    08:00 +6°C° 0 mm 5 mps 725 mmHg 85%
    09:00 +7°C° 0 mm 5 mps 725 mmHg 80%
    10:00 +7°C° 0 mm 6 mps 725 mmHg 76%
    11:00 +9°C° 0 mm 6 mps 726 mmHg 70%
    12:00 +10°C° 0 mm 6 mps 726 mmHg 64%
    13:00 +11°C° 0 mm 6 mps 726 mmHg 58%
    14:00 +11°C° 0 mm 6 mps 726 mmHg 57%
    15:00 +11°C° 0 mm 6 mps 726 mmHg 57%
    16:00 +12°C° 0 mm 5 mps 726 mmHg 56%
    17:00 +10°C° 0 mm 5 mps 727 mmHg 62%
    18:00 +10°C° 0 mm 4 mps 727 mmHg 68%
    19:00 +8°C° 0 mm 3 mps 727 mmHg 74%
    20:00 +8°C° 0 mm 3 mps 727 mmHg 77%
    21:00 +7°C° 0 mm 3 mps 727 mmHg 79%
    22:00 +7°C° 0 mm 3 mps 727 mmHg 82%
    23:00 +5°C° 0 mm 3 mps 727 mmHg 83%

    Day after tomorrow, 21 September, Friday

    Time Temperature Precipitation Wind Pressure Humidity
    00:00 +5°C° 0 mm 3 mps 727 mmHg 85%
    01:00 +5°C° 0 mm 2 mps 727 mmHg 86%
    02:00 +4°C° 0 mm 3 mps 728 mmHg 87%
    03:00 +4°C° 0 mm 3 mps 728 mmHg 88%
    04:00 +3°C° 0 mm 3 mps 728 mmHg 89%
    05:00 +3°C° 0 mm 3 mps 728 mmHg 89%
    06:00 +3°C° 0 mm 3 mps 729 mmHg 89%
    07:00 +4°C° 0 mm 3 mps 729 mmHg 89%
    08:00 +5°C° 0 mm 4 mps 729 mmHg 81%
    09:00 +7°C° 0 mm 4 mps 730 mmHg 73%
    10:00 +9°C° 0 mm 5 mps 730 mmHg 66%
    11:00 +10°C° 0 mm 5 mps 730 mmHg 62%
    12:00 +12°C° 0 mm 5 mps 731 mmHg 58%
    13:00 +13°C° 0 mm 5 mps 731 mmHg 55%
    14:00 +13°C° 0 mm 5 mps 731 mmHg 55%
    15:00 +14°C° 0 mm 5 mps 731 mmHg 55%
    16:00 +14°C° 0 mm 5 mps 731 mmHg 55%
    17:00 +12°C° 0 mm 4 mps 732 mmHg 61%
    18:00 +11°C° 0 mm 3 mps 732 mmHg 67%
    19:00 +9°C° 0 mm 3 mps 732 mmHg 74%
    20:00 +8°C° 0 mm 2 mps 732 mmHg 76%
    21:00 +8°C° 0 mm 2 mps 733 mmHg 79%
    22:00 +7°C° 0 mm 2 mps 733 mmHg 82%
    23:00 +7°C° 0 mm 2 mps 733 mmHg 84%

    22 September, Saturday

    Time Temperature Precipitation Wind Pressure Humidity
    00:00 +7°C° 0 mm 2 mps 733 mmHg 86%
    01:00 +6°C° 0 mm 2 mps 734 mmHg 88%
    02:00 +6°C° 0 mm 2 mps 734 mmHg 89%
    03:00 +6°C° 0 mm 2 mps 734 mmHg 91%
    04:00 +6°C° 0 mm 2 mps 735 mmHg 92%
    05:00 +7°C° 0 mm 2 mps 735 mmHg 93%
    06:00 +7°C° 0 mm 2 mps 735 mmHg 94%
    07:00 +7°C° 0 mm 2 mps 736 mmHg 95%
    08:00 +9°C° 0 mm 2 mps 736 mmHg 90%
    09:00 +12°C° 0 mm 2 mps 736 mmHg 84%
    10:00 +14°C° 0 mm 2 mps 736 mmHg 79%
    11:00 +15°C° 0 mm 2 mps 736 mmHg 74%
    12:00 +17°C° 0 mm 3 mps 736 mmHg 70%
    13:00 +18°C° 0 mm 3 mps 736 mmHg 66%
    14:00 +18°C° 0 mm 3 mps 736 mmHg 69%
    15:00 +17°C° 0 mm 3 mps 736 mmHg 72%
    16:00 +17°C° 0 mm 3 mps 736 mmHg 75%
    17:00 +16°C° 0 mm 3 mps 736 mmHg 80%
    18:00 +15°C° 0 mm 2 mps 736 mmHg 85%
    19:00 +14°C° 0 mm 2 mps 736 mmHg 89%
    20:00 +14°C° 0 mm 2 mps 736 mmHg 90%
    21:00 +13°C° 0 mm 2 mps 736 mmHg 91%
    22:00 +13°C° 0 mm 2 mps 736 mmHg 92%
    23:00 +13°C° 0 mm 2 mps 736 mmHg 92%

    23 September, Sunday

    Time Temperature Precipitation Wind Pressure Humidity
    00:00 +12°C° 0 mm 2 mps 736 mmHg 92%
    01:00 +12°C° 0 mm 2 mps 736 mmHg 93%
    02:00 +12°C° 0 mm 2 mps 736 mmHg 93%
    03:00 +12°C° 0 mm 2 mps 736 mmHg 93%
    04:00 +12°C° 0 mm 2 mps 736 mmHg 93%
    05:00 +12°C° 0 mm 2 mps 736 mmHg 94%
    06:00 +12°C° 0 mm 2 mps 736 mmHg 94%
    07:00 +12°C° 0 mm 2 mps 736 mmHg 94%
    08:00 +13°C° 0 mm 2 mps 736 mmHg 88%
    09:00 +14°C° 0 mm 3 mps 736 mmHg 81%
    10:00 +17°C° 0 mm 3 mps 736 mmHg 75%
    11:00 +18°C° 0 mm 3 mps 736 mmHg 71%
    12:00 +19°C° 0 mm 4 mps 736 mmHg 67%
    13:00 +20°C° 0 mm 4 mps 736 mmHg 63%
    14:00 +20°C° 0 mm 4 mps 736 mmHg 63%
    15:00 +20°C° 0 mm 4 mps 736 mmHg 63%
    16:00 +20°C° 0 mm 4 mps 735 mmHg 63%
    17:00 +19°C° 0 mm 3 mps 735 mmHg 69%
    18:00 +17°C° 0 mm 2 mps 735 mmHg 74%
    19:00 +16°C° 0 mm 2 mps 735 mmHg 80%
    20:00 +15°C° 0 mm 2 mps 735 mmHg 81%
    21:00 +15°C° 0 mm 2 mps 735 mmHg 83%
    22:00 +14°C° 0 mm 2 mps 734 mmHg 84%
    23:00 +14°C° 0 mm 2 mps 734 mmHg 84%

    24 September, Monday

    Time Temperature Precipitation Wind Pressure Humidity
    00:00 +13°C° 0 mm 2 mps 734 mmHg 85%
    01:00 +12°C° 0 mm 3 mps 734 mmHg 85%
    02:00 +12°C° 0 mm 3 mps 734 mmHg 86%
    03:00 +11°C° 0 mm 3 mps 734 mmHg 86%
    04:00 +11°C° 0 mm 3 mps 733 mmHg 86%
    05:00 +11°C° 0 mm 3 mps 733 mmHg 86%
    06:00 +11°C° 0 mm 3 mps 733 mmHg 85%
    07:00 +11°C° 0 mm 3 mps 733 mmHg 85%
    08:00 +13°C° 0 mm 3 mps 733 mmHg 78%
    09:00 +15°C° 0 mm 4 mps 733 mmHg 71%
    10:00 +17°C° 0 mm 5 mps 733 mmHg 64%
    11:00 +19°C° 0 mm 5 mps 733 mmHg 57%
    12:00 +20°C° 0 mm 5 mps 733 mmHg 51%
    13:00 +21°C° 0 mm 5 mps 733 mmHg 44%
    14:00 +21°C° 0 mm 5 mps 733 mmHg 44%
    15:00 +21°C° 0 mm 4 mps 733 mmHg 44%
    16:00 +21°C° 0 mm 4 mps 732 mmHg 44%
    17:00 +19°C° 0 mm 4 mps 732 mmHg 49%
    18:00 +17°C° 0 mm 3 mps 732 mmHg 55%
    19:00 +14°C° 0 mm 3 mps 732 mmHg 60%
    20:00 +14°C° 0 mm 3 mps 732 mmHg 62%
    21:00 +13°C° 0 mm 3 mps 731 mmHg 64%
    22:00 +13°C° 0 mm 3 mps 731 mmHg 66%
    23:00 +13°C° 0 mm 3 mps 731 mmHg 67%
    Show more